Time,TemperatureF,DewpointF,PressureIn,WindDirection,WindDirectionDegrees,WindSpeedMPH,WindSpeedGustMPH,Humidity,HourlyPrecipIn,Conditions,Clouds,dailyrainin,SoftwareType,DateUTC
2013-06-02 00:00:00,40.2,36.1,29.42,NE,45,5.5,10.9,85,0.00,,,-99.99,VWS V12.07,2013-06-02 05:00:00,
2013-06-02 00:05:00,40.2,36.1,29.42,NW,315,2.9,5.5,85,0.00,,,-99.99,VWS V12.07,2013-06-02 05:05:00,
2013-06-02 00:10:00,39.9,35.8,29.42,NE,45,6.4,11.1,85,0.00,,,-99.99,VWS V12.07,2013-06-02 05:10:00,
2013-06-02 00:15:00,39.9,35.8,29.42,NNE,22,0.0,11.1,85,0.00,,,-99.99,VWS V12.07,2013-06-02 05:15:00,
2013-06-02 00:20:00,39.9,35.8,29.42,NE,45,6.2,6.2,85,0.00,,,-99.99,VWS V12.07,2013-06-02 05:20:00,
2013-06-02 00:25:00,39.7,35.6,29.42,NE,45,6.2,6.2,85,0.00,,,-99.99,VWS V12.07,2013-06-02 05:25:00,
2013-06-02 00:30:00,39.5,35.4,29.42,West,270,3.3,9.3,85,0.00,,,-99.99,VWS V12.07,2013-06-02 05:30:00,
2013-06-02 00:35:00,39.5,35.4,29.42,NE,45,6.2,6.2,85,0.00,,,-99.99,VWS V12.07,2013-06-02 05:35:00,
2013-06-02 00:40:00,39.3,35.2,29.42,NE,45,4.2,6.2,85,0.00,,,-99.99,VWS V12.07,2013-06-02 05:40:00,
2013-06-02 00:45:00,39.3,35.5,29.42,WNW,292,2.0,6.2,86,0.00,,,-99.99,VWS V12.07,2013-06-02 05:45:00,
2013-06-02 00:50:00,39.3,35.5,29.42,WNW,292,2.2,2.2,86,0.00,,,-99.99,VWS V12.07,2013-06-02 05:50:00,
2013-06-02 00:55:00,39.0,35.2,29.42,North,0,4.2,4.2,86,0.00,,,-99.99,VWS V12.07,2013-06-02 05:55:00,
2013-06-02 01:00:00,39.0,35.2,29.42,WNW,292,5.1,5.1,86,0.00,,,-99.99,VWS V12.07,2013-06-02 06:00:00,
2013-06-02 01:05:00,39.0,35.2,29.42,NE,45,0.0,5.1,86,0.00,,,-99.99,VWS V12.07,2013-06-02 06:05:00,
2013-06-02 01:10:00,39.0,35.2,29.42,NNE,22,2.4,5.1,86,0.00,,,-99.99,VWS V12.07,2013-06-02 06:10:00,
2013-06-02 01:15:00,39.0,35.2,29.42,WNW,292,0.0,5.1,86,0.00,,,-99.99,VWS V12.07,2013-06-02 06:15:00,
2013-06-02 01:20:00,39.0,35.2,29.43,West,270,2.0,4.6,86,0.00,,,-99.99,VWS V12.07,2013-06-02 06:20:00,
2013-06-02 01:25:00,38.8,35.0,29.43,NNE,22,2.4,4.6,86,0.00,,,-99.99,VWS V12.07,2013-06-02 06:25:00,
2013-06-02 01:30:00,38.8,35.3,29.43,NW,315,0.0,7.6,87,0.00,,,-99.99,VWS V12.07,2013-06-02 06:30:00,
2013-06-02 01:35:00,38.8,35.3,29.43,West,270,1.7,6.0,87,0.00,,,-99.99,VWS V12.07,2013-06-02 06:35:00,
2013-06-02 01:40:00,38.6,35.1,29.43,East,90,1.7,6.9,87,0.00,,,-99.99,VWS V12.07,2013-06-02 06:40:00,
2013-06-02 01:45:00,38.6,35.1,29.44,NE,45,3.1,6.9,87,0.00,,,-99.99,VWS V12.07,2013-06-02 06:45:00,
2013-06-02 01:50:00,38.4,34.9,29.44,WNW,292,5.1,5.1,87,0.00,,,-99.99,VWS V12.07,2013-06-02 06:50:00,
2013-06-02 01:55:00,38.4,34.9,29.43,NNE,22,2.2,5.1,87,0.00,,,-99.99,VWS V12.07,2013-06-02 06:55:00,
2013-06-02 02:00:00,38.4,34.9,29.43,NE,45,4.0,5.1,87,0.00,,,-99.99,VWS V12.07,2013-06-02 07:00:00,
2013-06-02 02:05:00,38.4,34.9,29.44,NE,45,1.7,4.0,87,0.00,,,-99.99,VWS V12.07,2013-06-02 07:05:00,
2013-06-02 02:10:00,38.4,34.9,29.43,NE,45,0.0,6.2,87,0.00,,,-99.99,VWS V12.07,2013-06-02 07:10:00,
2013-06-02 02:15:00,38.4,34.9,29.43,NNE,22,0.2,6.2,87,0.00,,,-99.99,VWS V12.07,2013-06-02 07:15:00,
2013-06-02 02:20:00,38.4,34.9,29.44,NNE,22,8.5,8.5,87,0.00,,,-99.99,VWS V12.07,2013-06-02 07:20:00,
2013-06-02 02:25:00,38.4,34.9,29.44,NNE,22,0.0,8.5,87,0.00,,,-99.99,VWS V12.07,2013-06-02 07:25:00,
2013-06-02 02:30:00,38.4,34.9,29.44,West,270,3.8,8.5,87,0.00,,,-99.99,VWS V12.07,2013-06-02 07:30:00,
2013-06-02 02:35:00,38.4,34.9,29.44,NE,45,0.0,3.8,87,0.00,,,-99.99,VWS V12.07,2013-06-02 07:35:00,
2013-06-02 02:40:00,38.4,34.9,29.44,WNW,292,0.6,7.1,87,0.00,,,-99.99,VWS V12.07,2013-06-02 07:40:00,
2013-06-02 02:45:00,38.4,34.9,29.44,NE,45,6.7,7.1,87,0.00,,,-99.99,VWS V12.07,2013-06-02 07:45:00,
2013-06-02 02:50:00,38.4,34.9,29.44,WSW,248,8.9,8.9,87,0.00,,,-99.99,VWS V12.07,2013-06-02 07:50:00,
2013-06-02 02:55:00,38.4,34.9,29.44,NNW,338,5.5,8.9,87,0.00,,,-99.99,VWS V12.07,2013-06-02 07:55:00,
2013-06-02 03:00:00,38.4,34.9,29.44,ENE,68,10.5,10.5,87,0.00,,,-99.99,VWS V12.07,2013-06-02 08:00:00,
2013-06-02 03:05:00,38.4,34.9,29.44,NE,45,8.5,10.5,87,0.00,,,-99.99,VWS V12.07,2013-06-02 08:05:00,
2013-06-02 03:10:00,38.4,34.9,29.44,ENE,68,0.0,10.5,87,0.00,,,-99.99,VWS V12.07,2013-06-02 08:10:00,
2013-06-02 03:15:00,38.4,34.9,29.44,WNW,292,0.0,10.5,87,0.00,,,-99.99,VWS V12.07,2013-06-02 08:15:00,
2013-06-02 03:20:00,38.4,34.9,29.44,WNW,292,1.3,5.1,87,0.00,,,-99.99,VWS V12.07,2013-06-02 08:20:00,
2013-06-02 03:25:00,38.4,34.9,29.44,NNW,338,0.0,5.1,87,0.00,,,-99.99,VWS V12.07,2013-06-02 08:25:00,
2013-06-02 03:30:00,38.4,34.9,29.44,NNE,22,0.0,6.9,87,0.00,,,-99.99,VWS V12.07,2013-06-02 08:30:00,
2013-06-02 03:35:00,38.4,34.9,29.45,NNE,22,0.4,2.4,87,0.00,,,-99.99,VWS V12.07,2013-06-02 08:35:00,
2013-06-02 03:40:00,38.4,34.9,29.45,NNE,22,5.8,5.8,87,0.00,,,-99.99,VWS V12.07,2013-06-02 08:40:00,
2013-06-02 03:45:00,38.3,34.8,29.45,North,0,0.8,6.9,87,0.00,,,-99.99,VWS V12.07,2013-06-02 08:45:00,
2013-06-02 03:50:00,38.1,34.6,29.46,NNE,22,0.0,0.8,87,0.00,,,-99.99,VWS V12.07,2013-06-02 08:50:00,
2013-06-02 03:55:00,38.1,34.6,29.46,NNE,22,0.0,8.0,87,0.00,,,-99.99,VWS V12.07,2013-06-02 08:55:00,
2013-06-02 04:00:00,37.9,34.4,29.46,NE,45,5.3,8.0,87,0.00,,,-99.99,VWS V12.07,2013-06-02 09:00:00,
2013-06-02 04:05:00,37.9,34.4,29.47,NE,45,5.5,5.5,87,0.00,,,-99.99,VWS V12.07,2013-06-02 09:05:00,
2013-06-02 04:10:00,37.7,34.2,29.46,NE,45,1.1,5.5,87,0.00,,,-99.99,VWS V12.07,2013-06-02 09:10:00,
2013-06-02 04:15:00,37.7,34.2,29.46,NE,45,0.0,5.5,87,0.00,,,-99.99,VWS V12.07,2013-06-02 09:15:00,
2013-06-02 04:20:00,37.5,34.0,29.46,West,270,3.1,3.1,87,0.00,,,-99.99,VWS V12.07,2013-06-02 09:20:00,
2013-06-02 04:25:00,37.5,34.0,29.46,NE,45,6.2,6.2,87,0.00,,,-99.99,VWS V12.07,2013-06-02 09:25:00,
2013-06-02 04:30:00,37.4,33.9,29.46,NE,45,2.2,10.2,87,0.00,,,-99.99,VWS V12.07,2013-06-02 09:30:00,
2013-06-02 04:35:00,37.2,33.7,29.46,WNW,292,5.5,5.5,87,0.00,,,-99.99,VWS V12.07,2013-06-02 09:35:00,
2013-06-02 04:40:00,37.2,33.7,29.46,WNW,292,0.0,5.5,87,0.00,,,-99.99,VWS V12.07,2013-06-02 09:40:00,
2013-06-02 04:45:00,37.2,33.7,29.47,NNE,22,0.0,7.3,87,0.00,,,-99.99,VWS V12.07,2013-06-02 09:45:00,
2013-06-02 04:50:00,37.0,33.8,29.47,North,0,3.3,3.3,88,0.00,,,-99.99,VWS V12.07,2013-06-02 09:50:00,
2013-06-02 04:55:00,37.0,33.8,29.47,NNE,22,0.0,4.9,88,0.00,,,-99.99,VWS V12.07,2013-06-02 09:55:00,
2013-06-02 05:00:00,37.0,33.5,29.47,NE,45,2.6,4.9,87,0.00,,,-99.99,VWS V12.07,2013-06-02 10:00:00,
2013-06-02 05:05:00,36.8,33.6,29.47,WNW,292,2.0,2.6,88,0.00,,,-99.99,VWS V12.07,2013-06-02 10:05:00,
2013-06-02 05:10:00,36.8,33.6,29.48,North,0,3.3,6.7,88,0.00,,,-99.99,VWS V12.07,2013-06-02 10:10:00,
2013-06-02 05:15:00,36.6,33.4,29.49,North,0,6.4,6.7,88,0.00,,,-99.99,VWS V12.07,2013-06-02 10:15:00,
2013-06-02 05:20:00,36.6,33.4,29.49,NE,45,0.6,6.4,88,0.00,,,-99.99,VWS V12.07,2013-06-02 10:20:00,
2013-06-02 05:25:00,36.6,33.4,29.50,NE,45,2.2,6.4,88,0.00,,,-99.99,VWS V12.07,2013-06-02 10:25:00,
2013-06-02 05:30:00,36.6,33.4,29.49,NE,45,2.9,6.4,88,0.00,,,-99.99,VWS V12.07,2013-06-02 10:30:00,
2013-06-02 05:35:00,36.6,33.4,29.49,NNW,338,2.2,2.9,88,0.00,,,-99.99,VWS V12.07,2013-06-02 10:35:00,
2013-06-02 05:40:00,36.6,33.4,29.49,NNE,22,3.3,3.3,88,0.00,,,-99.99,VWS V12.07,2013-06-02 10:40:00,
2013-06-02 05:45:00,36.8,33.6,29.49,ENE,68,5.5,5.5,88,0.00,,,-99.99,VWS V12.07,2013-06-02 10:45:00,
2013-06-02 05:50:00,36.8,33.6,29.49,WSW,248,0.0,0.8,88,0.00,,,-99.99,VWS V12.07,2013-06-02 10:50:00,
2013-06-02 05:55:00,37.0,33.8,29.49,NNW,338,0.6,2.6,88,0.00,,,-99.99,VWS V12.07,2013-06-02 10:55:00,
2013-06-02 06:00:00,37.0,33.8,29.48,North,0,2.4,2.9,88,0.00,,,-99.99,VWS V12.07,2013-06-02 11:00:00,
2013-06-02 06:05:00,37.0,33.8,29.48,South,180,0.8,0.8,88,0.00,,,-99.99,VWS V12.07,2013-06-02 11:05:00,
2013-06-02 06:10:00,37.2,34.0,29.48,North,0,5.3,6.2,88,0.00,,,-99.99,VWS V12.07,2013-06-02 11:10:00,
2013-06-02 06:15:00,37.2,34.0,29.48,NNE,22,5.5,6.2,88,0.00,,,-99.99,VWS V12.07,2013-06-02 11:15:00,
2013-06-02 06:20:00,37.2,34.0,29.48,West,270,2.4,3.3,88,0.00,,,-99.99,VWS V12.07,2013-06-02 11:20:00,
2013-06-02 06:25:00,37.4,34.2,29.47,NNE,22,7.3,7.3,88,0.00,,,-99.99,VWS V12.07,2013-06-02 11:25:00,
2013-06-02 06:30:00,37.4,34.2,29.47,NNE,22,6.4,7.3,88,0.00,,,-99.99,VWS V12.07,2013-06-02 11:30:00,
2013-06-02 06:35:00,37.4,34.2,29.48,NE,45,6.7,6.7,88,0.00,,,-99.99,VWS V12.07,2013-06-02 11:35:00,
2013-06-02 06:40:00,37.5,34.3,29.49,NNE,22,2.4,8.0,88,0.00,,,-99.99,VWS V12.07,2013-06-02 11:40:00,
2013-06-02 06:45:00,37.5,34.3,29.49,NE,45,3.5,8.0,88,0.00,,,-99.99,VWS V12.07,2013-06-02 11:45:00,
2013-06-02 06:50:00,37.7,34.5,29.50,NE,45,2.2,3.5,88,0.00,,,-99.99,VWS V12.07,2013-06-02 11:50:00,
2013-06-02 06:55:00,37.7,34.2,29.50,NE,45,5.5,5.5,87,0.00,,,-99.99,VWS V12.07,2013-06-02 11:55:00,
2013-06-02 07:00:00,37.9,34.4,29.50,North,0,4.4,7.8,87,0.00,,,-99.99,VWS V12.07,2013-06-02 12:00:00,
2013-06-02 07:05:00,37.9,34.4,29.51,NE,45,0.0,4.4,87,0.00,,,-99.99,VWS V12.07,2013-06-02 12:05:00,
2013-06-02 07:10:00,37.9,34.4,29.51,WNW,292,0.2,5.8,87,0.00,,,-99.99,VWS V12.07,2013-06-02 12:10:00,
2013-06-02 07:15:00,37.9,34.4,29.52,NNW,338,1.1,5.8,87,0.00,,,-99.99,VWS V12.07,2013-06-02 12:15:00,
2013-06-02 07:20:00,38.1,34.6,29.52,NE,45,4.0,4.0,87,0.00,,,-99.99,VWS V12.07,2013-06-02 12:20:00,
2013-06-02 07:25:00,38.1,34.6,29.52,ENE,68,4.9,5.3,87,0.00,,,-99.99,VWS V12.07,2013-06-02 12:25:00,
2013-06-02 07:30:00,38.1,34.6,29.52,NE,45,4.9,5.3,87,0.00,,,-99.99,VWS V12.07,2013-06-02 12:30:00,
2013-06-02 07:35:00,38.1,34.6,29.52,NNW,338,1.7,4.9,87,0.00,,,-99.99,VWS V12.07,2013-06-02 12:35:00,
2013-06-02 07:40:00,38.3,34.8,29.52,NNW,338,0.0,4.9,87,0.02,,,-99.99,VWS V12.07,2013-06-02 12:40:00,
2013-06-02 07:45:00,38.3,34.8,29.52,NE,45,1.3,4.9,87,0.02,,,-99.99,VWS V12.07,2013-06-02 12:45:00,
2013-06-02 07:50:00,38.4,34.9,29.53,NE,45,4.2,4.2,87,0.02,,,-99.99,VWS V12.07,2013-06-02 12:50:00,
2013-06-02 07:55:00,38.4,34.9,29.53,North,0,2.0,4.2,87,0.02,,,-99.99,VWS V12.07,2013-06-02 12:55:00,
2013-06-02 08:00:00,38.4,34.9,29.54,NE,45,1.3,4.2,87,0.02,,,-99.99,VWS V12.07,2013-06-02 13:00:00,
2013-06-02 08:05:00,38.4,34.9,29.53,NW,315,0.6,0.6,87,0.02,,,-99.99,VWS V12.07,2013-06-02 13:05:00,
2013-06-02 08:10:00,38.4,34.6,29.54,NNE,22,4.2,4.2,86,0.02,,,-99.99,VWS V12.07,2013-06-02 13:10:00,
2013-06-02 08:15:00,38.8,35.0,29.54,North,0,0.4,4.2,86,0.02,,,-99.99,VWS V12.07,2013-06-02 13:15:00,
2013-06-02 08:20:00,38.8,35.0,29.54,NE,45,2.2,2.2,86,0.02,,,-99.99,VWS V12.07,2013-06-02 13:20:00,
2013-06-02 08:25:00,38.8,35.0,29.55,NW,315,1.3,7.8,86,0.02,,,-99.99,VWS V12.07,2013-06-02 13:25:00,
2013-06-02 08:30:00,39.0,35.2,29.55,West,270,0.0,8.5,86,0.02,,,-99.99,VWS V12.07,2013-06-02 13:30:00,
2013-06-02 08:35:00,39.0,35.2,29.55,WNW,292,2.9,5.8,86,0.02,,,-99.99,VWS V12.07,2013-06-02 13:35:00,
2013-06-02 08:40:00,39.0,35.2,29.55,NE,45,2.6,5.8,86,0.00,,,-99.99,VWS V12.07,2013-06-02 13:40:00,
2013-06-02 08:45:00,39.3,35.2,29.55,WNW,292,0.6,5.8,85,0.00,,,-99.99,VWS V12.07,2013-06-02 13:45:00,
2013-06-02 08:50:00,39.3,35.2,29.56,NE,45,7.3,7.3,85,0.00,,,-99.99,VWS V12.07,2013-06-02 13:50:00,
2013-06-02 08:55:00,39.7,35.6,29.56,NNW,338,3.5,7.3,85,0.00,,,-99.99,VWS V12.07,2013-06-02 13:55:00,
2013-06-02 09:00:00,39.7,35.6,29.56,NE,45,5.1,7.3,85,0.00,,,-99.99,VWS V12.07,2013-06-02 14:00:00,
2013-06-02 09:05:00,39.9,35.8,29.57,NNE,22,0.0,5.1,85,0.00,,,-99.99,VWS V12.07,2013-06-02 14:05:00,
2013-06-02 09:10:00,40.2,35.8,29.57,NNW,338,1.5,5.1,84,0.00,,,-99.99,VWS V12.07,2013-06-02 14:10:00,
2013-06-02 09:15:00,40.2,35.8,29.57,NE,45,2.6,5.1,84,0.00,,,-99.99,VWS V12.07,2013-06-02 14:15:00,
2013-06-02 09:20:00,40.2,35.8,29.57,North,0,1.7,2.6,84,0.00,,,-99.99,VWS V12.07,2013-06-02 14:20:00,
2013-06-02 09:25:00,40.4,36.0,29.57,NNE,22,0.0,4.6,84,0.00,,,-99.99,VWS V12.07,2013-06-02 14:25:00,
2013-06-02 09:30:00,40.6,36.2,29.57,NE,45,1.1,4.6,84,0.00,,,-99.99,VWS V12.07,2013-06-02 14:30:00,
2013-06-02 09:40:00,40.8,36.3,29.57,West,270,0.0,3.8,84,0.00,,,-99.99,VWS V12.07,2013-06-02 14:40:00,
2013-06-02 09:45:00,40.8,36.0,29.57,NE,45,3.5,4.6,83,0.00,,,-99.99,VWS V12.07,2013-06-02 14:45:00,
2013-06-02 09:50:00,41.1,36.3,29.57,NNE,22,7.1,7.1,83,0.00,,,-99.99,VWS V12.07,2013-06-02 14:50:00,
2013-06-02 09:55:00,41.5,36.7,29.57,NNW,338,1.5,7.1,83,0.00,,,-99.99,VWS V12.07,2013-06-02 14:55:00,
2013-06-02 10:00:00,41.9,37.1,29.57,NE,45,1.5,7.1,83,0.00,,,-99.99,VWS V12.07,2013-06-02 15:00:00,
2013-06-02 10:05:00,42.0,36.9,29.57,WNW,292,0.8,3.5,82,0.00,,,-99.99,VWS V12.07,2013-06-02 15:05:00,
2013-06-02 10:10:00,42.6,37.2,29.57,ENE,68,5.1,5.1,81,0.00,,,-99.99,VWS V12.07,2013-06-02 15:10:00,
2013-06-02 10:15:00,42.6,37.2,29.57,NE,45,3.8,5.1,81,0.00,,,-99.99,VWS V12.07,2013-06-02 15:15:00,
2013-06-02 10:20:00,42.9,37.2,29.57,NE,45,3.3,3.8,80,0.00,,,-99.99,VWS V12.07,2013-06-02 15:20:00,
2013-06-02 10:25:00,43.1,37.4,29.57,NNE,22,8.5,10.9,80,0.00,,,-99.99,VWS V12.07,2013-06-02 15:25:00,
2013-06-02 10:30:00,43.1,37.0,29.57,NNE,22,0.0,10.9,79,0.00,,,-99.99,VWS V12.07,2013-06-02 15:30:00,
2013-06-02 10:40:00,43.5,37.4,29.57,NNE,22,3.3,6.2,79,0.00,,,-99.99,VWS V12.07,2013-06-02 15:40:00,
2013-06-02 10:45:00,43.5,37.1,29.57,NE,45,3.3,6.2,78,0.00,,,-99.99,VWS V12.07,2013-06-02 15:45:00,
2013-06-02 10:50:00,43.5,37.1,29.58,NE,45,1.5,1.5,78,0.00,,,-99.99,VWS V12.07,2013-06-02 15:50:00,
2013-06-02 10:55:00,43.8,37.4,29.58,NE,45,0.0,1.5,78,0.00,,,-99.99,VWS V12.07,2013-06-02 15:55:00,
2013-06-02 11:00:00,44.4,38.0,29.58,North,0,2.6,5.3,78,0.00,,,-99.99,VWS V12.07,2013-06-02 16:00:00,
2013-06-02 11:05:00,44.4,37.7,29.58,NE,45,4.2,8.5,77,0.00,,,-99.99,VWS V12.07,2013-06-02 16:05:00,
2013-06-02 11:10:00,44.6,37.5,29.59,SSW,202,2.6,8.5,76,0.00,,,-99.99,VWS V12.07,2013-06-02 16:10:00,
2013-06-02 11:15:00,44.6,37.2,29.59,SE,135,1.3,8.5,75,0.00,,,-99.99,VWS V12.07,2013-06-02 16:15:00,
2013-06-02 11:20:00,44.4,37.0,29.59,West,270,1.5,2.0,75,0.00,,,-99.99,VWS V12.07,2013-06-02 16:20:00,
2013-06-02 11:25:00,44.6,37.2,29.59,West,270,2.2,5.8,75,0.00,,,-99.99,VWS V12.07,2013-06-02 16:25:00,
2013-06-02 11:30:00,44.9,37.8,29.59,NE,45,6.2,6.2,76,0.00,,,-99.99,VWS V12.07,2013-06-02 16:30:00,
2013-06-02 11:35:00,45.1,37.7,29.59,NE,45,4.2,4.2,75,0.00,,,-99.99,VWS V12.07,2013-06-02 16:35:00,
2013-06-02 11:40:00,45.3,37.5,29.59,ENE,68,1.1,4.2,74,0.00,,,-99.99,VWS V12.07,2013-06-02 16:40:00,
2013-06-02 11:45:00,45.3,37.5,29.59,NE,45,5.8,5.8,74,0.00,,,-99.99,VWS V12.07,2013-06-02 16:45:00,
2013-06-02 11:50:00,45.5,37.7,29.59,NNE,22,7.6,7.6,74,0.00,,,-99.99,VWS V12.07,2013-06-02 16:50:00,
2013-06-02 11:55:00,45.6,37.5,29.59,WNW,292,1.3,8.7,73,0.00,,,-99.99,VWS V12.07,2013-06-02 16:55:00,
2013-06-02 12:00:00,46.0,38.2,29.59,North,0,2.2,8.7,74,0.00,,,-99.99,VWS V12.07,2013-06-02 17:00:00,
2013-06-02 12:05:00,46.2,38.4,29.60,NE,45,0.0,1.1,74,0.00,,,-99.99,VWS V12.07,2013-06-02 17:05:00,
2013-06-02 12:10:00,46.2,38.0,29.60,SSW,202,1.1,3.8,73,0.00,,,-99.99,VWS V12.07,2013-06-02 17:10:00,
2013-06-02 12:15:00,46.2,38.0,29.59,NE,45,1.3,4.6,73,0.00,,,-99.99,VWS V12.07,2013-06-02 17:15:00,
2013-06-02 12:20:00,46.2,37.7,29.59,NW,315,0.0,1.3,72,0.00,,,-99.99,VWS V12.07,2013-06-02 17:20:00,
2013-06-02 12:25:00,46.4,37.9,29.59,NE,45,1.3,3.8,72,0.00,,,-99.99,VWS V12.07,2013-06-02 17:25:00,
2013-06-02 12:30:00,46.5,38.0,29.59,NE,45,3.8,8.0,72,0.00,,,-99.99,VWS V12.07,2013-06-02 17:30:00,
2013-06-02 12:35:00,46.9,38.4,29.59,NE,45,5.1,5.1,72,0.00,,,-99.99,VWS V12.07,2013-06-02 17:35:00,
2013-06-02 12:40:00,47.1,38.5,29.59,NE,45,0.0,5.1,72,0.00,,,-99.99,VWS V12.07,2013-06-02 17:40:00,
2013-06-02 12:45:00,47.6,39.0,29.59,WSW,248,1.1,5.1,72,0.00,,,-99.99,VWS V12.07,2013-06-02 17:45:00,
2013-06-02 12:50:00,47.8,38.9,29.59,NNE,22,1.1,3.1,71,0.00,,,-99.99,VWS V12.07,2013-06-02 17:50:00,
2013-06-02 12:55:00,48.0,38.7,29.59,SSW,202,5.3,5.3,70,0.00,,,-99.99,VWS V12.07,2013-06-02 17:55:00,
2013-06-02 13:00:00,48.0,38.7,29.59,NE,45,0.8,5.3,70,0.00,,,-99.99,VWS V12.07,2013-06-02 18:00:00,
2013-06-02 13:05:00,48.2,38.9,29.59,West,270,1.5,1.5,70,0.00,,,-99.99,VWS V12.07,2013-06-02 18:05:00,
2013-06-02 13:10:00,48.7,39.4,29.59,SW,225,0.0,9.1,70,0.00,,,-99.99,VWS V12.07,2013-06-02 18:10:00,
2013-06-02 13:15:00,48.7,39.4,29.59,NNE,22,2.2,9.1,70,0.00,,,-99.99,VWS V12.07,2013-06-02 18:15:00,
2013-06-02 13:20:00,49.1,39.4,29.59,WNW,292,0.0,6.0,69,0.00,,,-99.99,VWS V12.07,2013-06-02 18:20:00,
2013-06-02 13:25:00,49.2,39.5,29.59,NE,45,6.0,6.0,69,0.00,,,-99.99,VWS V12.07,2013-06-02 18:25:00,
2013-06-02 13:30:00,49.6,39.5,29.59,NNE,22,3.3,6.0,68,0.00,,,-99.99,VWS V12.07,2013-06-02 18:30:00,
2013-06-02 13:40:00,49.8,39.3,29.59,SSW,202,3.5,8.7,67,0.00,,,-99.99,VWS V12.07,2013-06-02 18:40:00,
2013-06-02 13:45:00,49.8,39.3,29.58,NE,45,4.9,8.7,67,0.00,,,-99.99,VWS V12.07,2013-06-02 18:45:00,
2013-06-02 13:50:00,49.8,39.7,29.58,SW,225,0.0,0.8,68,0.00,,,-99.99,VWS V12.07,2013-06-02 18:50:00,
2013-06-02 13:55:00,50.3,39.8,29.58,WNW,292,4.0,4.0,67,0.00,,,-99.99,VWS V12.07,2013-06-02 18:55:00,
2013-06-02 14:00:00,50.5,39.6,29.58,North,0,3.1,4.0,66,0.00,,,-99.99,VWS V12.07,2013-06-02 19:00:00,
2013-06-02 14:05:00,50.7,39.8,29.58,NNE,22,2.2,6.2,66,0.00,,,-99.99,VWS V12.07,2013-06-02 19:05:00,
2013-06-02 14:10:00,50.9,40.0,29.58,NE,45,4.4,10.7,66,0.00,,,-99.99,VWS V12.07,2013-06-02 19:10:00,
2013-06-02 14:15:00,51.2,40.2,29.58,West,270,0.0,10.7,66,0.00,,,-99.99,VWS V12.07,2013-06-02 19:15:00,
2013-06-02 14:20:00,51.4,40.0,29.58,NNE,22,2.2,2.2,65,0.00,,,-99.99,VWS V12.07,2013-06-02 19:20:00,
2013-06-02 14:25:00,51.6,39.8,29.59,NE,45,4.9,4.9,64,0.00,,,-99.99,VWS V12.07,2013-06-02 19:25:00,
2013-06-02 14:30:00,51.9,40.1,29.59,WSW,248,4.6,4.9,64,0.00,,,-99.99,VWS V12.07,2013-06-02 19:30:00,
2013-06-02 14:35:00,51.9,39.7,29.59,NE,45,0.4,4.6,63,0.00,,,-99.99,VWS V12.07,2013-06-02 19:35:00,
2013-06-02 14:40:00,52.3,40.1,29.58,North,0,3.5,4.6,63,0.00,,,-99.99,VWS V12.07,2013-06-02 19:40:00,
2013-06-02 14:50:00,52.8,40.6,29.58,NE,45,0.0,2.4,63,0.00,,,-99.99,VWS V12.07,2013-06-02 19:50:00,
2013-06-02 14:55:00,52.8,40.6,29.58,NE,45,1.3,5.5,63,0.00,,,-99.99,VWS V12.07,2013-06-02 19:55:00,
2013-06-02 15:00:00,53.2,40.5,29.58,ENE,68,7.8,7.8,62,0.00,,,-99.99,VWS V12.07,2013-06-02 20:00:00,
2013-06-02 15:05:00,53.2,40.5,29.58,NE,45,3.8,6.4,62,0.00,,,-99.99,VWS V12.07,2013-06-02 20:05:00,
2013-06-02 15:10:00,53.4,40.3,29.58,ENE,68,5.3,6.4,61,0.00,,,-99.99,VWS V12.07,2013-06-02 20:10:00,
2013-06-02 15:15:00,53.4,40.3,29.58,NNE,22,4.6,6.4,61,0.00,,,-99.99,VWS V12.07,2013-06-02 20:15:00,
2013-06-02 15:20:00,53.4,39.9,29.58,NW,315,0.0,0.0,60,0.00,,,-99.99,VWS V12.07,2013-06-02 20:20:00,
2013-06-02 15:25:00,53.4,39.9,29.58,NNE,22,2.2,3.1,60,0.00,,,-99.99,VWS V12.07,2013-06-02 20:25:00,
2013-06-02 15:30:00,53.4,39.5,29.58,NE,45,3.3,3.5,59,0.00,,,-99.99,VWS V12.07,2013-06-02 20:30:00,
2013-06-02 15:35:00,53.4,39.5,29.58,NE,45,2.6,2.6,59,0.00,,,-99.99,VWS V12.07,2013-06-02 20:35:00,
2013-06-02 15:40:00,53.4,39.5,29.58,NE,45,2.2,3.3,59,0.00,,,-99.99,VWS V12.07,2013-06-02 20:40:00,
2013-06-02 15:45:00,53.4,39.9,29.58,NW,315,0.6,3.3,60,0.00,,,-99.99,VWS V12.07,2013-06-02 20:45:00,
2013-06-02 15:50:00,53.7,40.2,29.58,East,90,1.7,1.7,60,0.00,,,-99.99,VWS V12.07,2013-06-02 20:50:00,
2013-06-02 15:55:00,54.1,39.7,29.58,NNW,338,0.0,7.1,58,0.00,,,-99.99,VWS V12.07,2013-06-02 20:55:00,
2013-06-02 16:00:00,54.3,39.8,29.58,NNE,22,3.5,7.1,58,0.00,,,-99.99,VWS V12.07,2013-06-02 21:00:00,
2013-06-02 16:05:00,54.3,39.8,29.58,SSW,202,5.5,8.0,58,0.00,,,-99.99,VWS V12.07,2013-06-02 21:05:00,
2013-06-02 16:10:00,54.3,39.8,29.58,SSW,202,3.3,8.0,58,0.00,,,-99.99,VWS V12.07,2013-06-02 21:10:00,
2013-06-02 16:15:00,54.3,39.8,29.58,SW,225,0.0,8.0,58,0.00,,,-99.99,VWS V12.07,2013-06-02 21:15:00,
2013-06-02 16:20:00,54.6,39.7,29.58,NW,315,3.3,3.3,57,0.00,,,-99.99,VWS V12.07,2013-06-02 21:20:00,
2013-06-02 16:25:00,54.8,39.9,29.58,NNE,22,6.4,6.4,57,0.00,,,-99.99,VWS V12.07,2013-06-02 21:25:00,
2013-06-02 16:30:00,55.0,40.1,29.58,ENE,68,0.0,6.4,57,0.00,,,-99.99,VWS V12.07,2013-06-02 21:30:00,
2013-06-02 16:35:00,55.0,40.1,29.58,NNE,22,4.6,4.6,57,0.00,,,-99.99,VWS V12.07,2013-06-02 21:35:00,
2013-06-02 16:40:00,55.2,39.8,29.58,NE,45,3.3,4.6,56,0.00,,,-99.99,VWS V12.07,2013-06-02 21:40:00,
2013-06-02 16:45:00,55.2,39.8,29.58,WSW,248,1.3,4.6,56,0.00,,,-99.99,VWS V12.07,2013-06-02 21:45:00,
2013-06-02 16:50:00,55.4,40.4,29.58,SSW,202,0.8,0.8,57,0.00,,,-99.99,VWS V12.07,2013-06-02 21:50:00,
2013-06-02 16:55:00,55.7,40.3,29.58,WSW,248,0.8,0.8,56,0.00,,,-99.99,VWS V12.07,2013-06-02 21:55:00,
2013-06-02 17:00:00,55.9,40.5,29.58,SW,225,1.3,3.3,56,0.00,,,-99.99,VWS V12.07,2013-06-02 22:00:00,
2013-06-02 17:05:00,56.4,40.9,29.58,NE,45,0.0,3.1,56,0.00,,,-99.99,VWS V12.07,2013-06-02 22:05:00,
2013-06-02 17:10:00,56.4,40.0,29.58,SW,225,3.8,3.8,54,0.00,,,-99.99,VWS V12.07,2013-06-02 22:10:00,
2013-06-02 17:15:00,56.4,40.0,29.58,NW,315,0.0,3.8,54,0.00,,,-99.99,VWS V12.07,2013-06-02 22:15:00,
2013-06-02 17:20:00,56.4,40.0,29.59,NE,45,0.8,3.3,54,0.00,,,-99.99,VWS V12.07,2013-06-02 22:20:00,
2013-06-02 17:25:00,56.8,40.3,29.59,SSW,202,2.9,3.3,54,0.00,,,-99.99,VWS V12.07,2013-06-02 22:25:00,
2013-06-02 17:30:00,56.8,40.3,29.59,SSW,202,0.0,3.3,54,0.00,,,-99.99,VWS V12.07,2013-06-02 22:30:00,
2013-06-02 17:35:00,56.8,39.9,29.59,ENE,68,0.6,4.6,53,0.00,,,-99.99,VWS V12.07,2013-06-02 22:35:00,
2013-06-02 17:40:00,56.8,39.9,29.59,SW,225,0.4,5.3,53,0.00,,,-99.99,VWS V12.07,2013-06-02 22:40:00,
2013-06-02 17:45:00,56.8,39.4,29.59,South,180,0.6,5.3,52,0.00,,,-99.99,VWS V12.07,2013-06-02 22:45:00,
2013-06-02 17:50:00,56.8,39.4,29.59,NNE,22,5.5,5.5,52,0.00,,,-99.99,VWS V12.07,2013-06-02 22:50:00,
2013-06-02 17:55:00,57.0,40.1,29.59,SSE,158,0.6,5.5,53,0.00,,,-99.99,VWS V12.07,2013-06-02 22:55:00,
2013-06-02 18:00:00,57.5,40.0,29.60,South,180,0.6,5.5,52,0.00,,,-99.99,VWS V12.07,2013-06-02 23:00:00,
2013-06-02 18:05:00,58.1,40.6,29.59,SSW,202,0.0,0.4,52,0.00,,,-99.99,VWS V12.07,2013-06-02 23:05:00,
2013-06-02 18:10:00,58.8,40.2,29.59,NE,45,1.3,4.6,50,0.00,,,-99.99,VWS V12.07,2013-06-02 23:10:00,
2013-06-02 18:15:00,59.5,39.8,29.60,SW,225,2.6,4.6,48,0.00,,,-99.99,VWS V12.07,2013-06-02 23:15:00,
2013-06-02 18:20:00,59.3,39.1,29.60,NNW,338,0.8,4.9,47,0.00,,,-99.99,VWS V12.07,2013-06-02 23:20:00,
2013-06-02 18:25:00,58.8,38.6,29.60,NW,315,1.7,4.9,47,0.00,,,-99.99,VWS V12.07,2013-06-02 23:25:00,
2013-06-02 18:30:00,58.8,38.6,29.60,NNE,22,0.0,4.9,47,0.00,,,-99.99,VWS V12.07,2013-06-02 23:30:00,
2013-06-02 18:35:00,58.4,38.3,29.60,WSW,248,0.0,5.3,47,0.00,,,-99.99,VWS V12.07,2013-06-02 23:35:00,
2013-06-02 18:40:00,58.2,38.1,29.60,West,270,1.3,5.3,47,0.00,,,-99.99,VWS V12.07,2013-06-02 23:40:00,
2013-06-02 18:45:00,58.2,38.6,29.60,NNE,22,4.6,5.3,48,0.00,,,-99.99,VWS V12.07,2013-06-02 23:45:00,
2013-06-02 18:50:00,58.2,38.6,29.60,NNW,338,2.4,4.0,48,0.00,,,-99.99,VWS V12.07,2013-06-02 23:50:00,
2013-06-02 18:55:00,57.9,38.3,29.60,NW,315,0.0,4.0,48,0.00,,,-99.99,VWS V12.07,2013-06-02 23:55:00,
2013-06-02 19:00:00,57.9,38.3,29.60,North,0,0.0,4.0,48,0.00,,,-99.99,VWS V12.07,2013-06-03 00:00:00,
2013-06-02 19:05:00,57.9,38.9,29.60,NNW,338,0.0,1.1,49,0.00,,,-99.99,VWS V12.07,2013-06-03 00:05:00,
2013-06-02 19:10:00,58.1,39.1,29.61,North,0,2.4,2.4,49,0.00,,,-99.99,VWS V12.07,2013-06-03 00:10:00,
2013-06-02 19:15:00,58.1,39.1,29.61,NW,315,0.0,2.4,49,0.00,,,-99.99,VWS V12.07,2013-06-03 00:15:00,
2013-06-02 19:20:00,58.1,38.5,29.61,North,0,0.0,2.0,48,0.00,,,-99.99,VWS V12.07,2013-06-03 00:20:00,
2013-06-02 19:25:00,58.1,38.5,29.61,North,0,0.0,2.0,48,0.00,,,-99.99,VWS V12.07,2013-06-03 00:25:00,
2013-06-02 19:30:00,57.9,38.9,29.61,North,0,0.0,2.0,49,0.00,,,-99.99,VWS V12.07,2013-06-03 00:30:00,
2013-06-02 19:35:00,57.7,38.7,29.61,North,0,0.0,1.3,49,0.00,,,-99.99,VWS V12.07,2013-06-03 00:35:00,
2013-06-02 19:40:00,57.7,38.7,29.61,NNE,22,0.0,1.3,49,0.00,,,-99.99,VWS V12.07,2013-06-03 00:40:00,
2013-06-02 19:45:00,57.3,38.3,29.61,NNE,22,0.0,1.3,49,0.00,,,-99.99,VWS V12.07,2013-06-03 00:45:00,
2013-06-02 19:50:00,56.8,37.9,29.61,NNE,22,0.0,2.9,49,0.00,,,-99.99,VWS V12.07,2013-06-03 00:50:00,
2013-06-02 19:55:00,56.1,37.7,29.61,NNE,22,0.0,2.9,50,0.00,,,-99.99,VWS V12.07,2013-06-03 00:55:00,
2013-06-02 20:05:00,54.5,36.8,29.61,NNE,22,0.0,0.0,51,0.00,,,-99.99,VWS V12.07,2013-06-03 01:05:00,
2013-06-02 20:10:00,53.7,36.5,29.61,NNE,22,0.0,0.0,52,0.00,,,-99.99,VWS V12.07,2013-06-03 01:10:00,
2013-06-02 20:15:00,53.2,36.5,29.61,NNE,22,0.0,0.0,53,0.00,,,-99.99,VWS V12.07,2013-06-03 01:15:00,
2013-06-02 20:20:00,51.9,35.8,29.61,NNE,22,0.0,0.0,54,0.00,,,-99.99,VWS V12.07,2013-06-03 01:20:00,
2013-06-02 20:25:00,51.2,35.6,29.61,NNE,22,0.0,0.0,55,0.00,,,-99.99,VWS V12.07,2013-06-03 01:25:00,
2013-06-02 20:30:00,50.5,35.4,29.60,NNE,22,0.0,0.0,56,0.00,,,-99.99,VWS V12.07,2013-06-03 01:30:00,
2013-06-02 20:35:00,49.6,35.0,29.60,NNE,22,0.0,0.0,57,0.00,,,-99.99,VWS V12.07,2013-06-03 01:35:00,
2013-06-02 20:40:00,49.1,35.4,29.60,NNE,22,0.0,0.0,59,0.00,,,-99.99,VWS V12.07,2013-06-03 01:40:00,
2013-06-02 20:45:00,48.5,34.8,29.60,NNE,22,0.0,0.0,59,0.00,,,-99.99,VWS V12.07,2013-06-03 01:45:00,
2013-06-02 20:50:00,47.6,34.8,29.60,NNE,22,0.0,0.0,61,0.00,,,-99.99,VWS V12.07,2013-06-03 01:50:00,
2013-06-02 20:55:00,47.1,34.8,29.60,NNE,22,0.0,0.0,62,0.00,,,-99.99,VWS V12.07,2013-06-03 01:55:00,
2013-06-02 21:00:00,46.5,34.2,29.60,NNE,22,0.0,0.0,62,0.00,,,-99.99,VWS V12.07,2013-06-03 02:00:00,
2013-06-02 21:05:00,45.8,33.9,29.60,NNE,22,0.0,0.0,63,0.00,,,-99.99,VWS V12.07,2013-06-03 02:05:00,
2013-06-02 21:10:00,45.3,33.9,29.60,NNE,22,0.0,0.0,64,0.00,,,-99.99,VWS V12.07,2013-06-03 02:10:00,
2013-06-02 21:15:00,44.9,33.5,29.60,NNE,22,0.0,0.0,64,0.00,,,-99.99,VWS V12.07,2013-06-03 02:15:00,
2013-06-02 21:20:00,44.4,33.4,29.60,NNE,22,0.0,0.0,65,0.00,,,-99.99,VWS V12.07,2013-06-03 02:20:00,
2013-06-02 21:25:00,43.8,33.2,29.61,NNE,22,0.0,0.0,66,0.00,,,-99.99,VWS V12.07,2013-06-03 02:25:00,
2013-06-02 21:30:00,43.5,32.9,29.61,NNE,22,0.0,0.0,66,0.00,,,-99.99,VWS V12.07,2013-06-03 02:30:00,
2013-06-02 21:35:00,42.9,32.7,29.61,NNE,22,0.0,0.0,67,0.00,,,-99.99,VWS V12.07,2013-06-03 02:35:00,
2013-06-02 21:40:00,42.6,32.4,29.61,NNE,22,0.0,0.0,67,0.00,,,-99.99,VWS V12.07,2013-06-03 02:40:00,
2013-06-02 21:45:00,42.2,32.4,29.61,NNE,22,0.0,0.0,68,0.00,,,-99.99,VWS V12.07,2013-06-03 02:45:00,
2013-06-02 21:50:00,41.7,31.9,29.61,NNE,22,0.0,0.0,68,0.00,,,-99.99,VWS V12.07,2013-06-03 02:50:00,
2013-06-02 21:55:00,41.5,31.7,29.61,NNE,22,0.0,0.0,68,0.00,,,-99.99,VWS V12.07,2013-06-03 02:55:00,
2013-06-02 22:00:00,41.3,31.9,29.62,NNE,22,0.0,0.0,69,0.00,,,-99.99,VWS V12.07,2013-06-03 03:00:00,
2013-06-02 22:05:00,40.8,31.8,29.62,NNE,22,0.0,0.0,70,0.00,,,-99.99,VWS V12.07,2013-06-03 03:05:00,
2013-06-02 22:10:00,40.8,31.8,29.62,NNE,22,0.0,0.0,70,0.00,,,-99.99,VWS V12.07,2013-06-03 03:10:00,
2013-06-02 22:15:00,40.6,31.6,29.62,NNE,22,0.0,0.0,70,0.00,,,-99.99,VWS V12.07,2013-06-03 03:15:00,
2013-06-02 22:20:00,40.2,31.6,29.62,NNE,22,0.0,0.0,71,0.00,,,-99.99,VWS V12.07,2013-06-03 03:20:00,
2013-06-02 22:25:00,40.1,31.5,29.62,NNE,22,0.0,0.0,71,0.00,,,-99.99,VWS V12.07,2013-06-03 03:25:00,
2013-06-02 22:30:00,39.9,31.6,29.62,NNE,22,0.0,0.0,72,0.00,,,-99.99,VWS V12.07,2013-06-03 03:30:00,
2013-06-02 22:35:00,39.7,31.4,29.62,NNE,22,0.0,0.0,72,0.00,,,-99.99,VWS V12.07,2013-06-03 03:35:00,
2013-06-02 22:40:00,39.5,31.2,29.62,NNE,22,0.0,0.0,72,0.00,,,-99.99,VWS V12.07,2013-06-03 03:40:00,
2013-06-02 22:45:00,39.3,31.0,29.62,NNE,22,0.0,0.0,72,0.00,,,-99.99,VWS V12.07,2013-06-03 03:45:00,
2013-06-02 22:50:00,39.3,31.4,29.62,NNE,22,0.0,0.0,73,0.00,,,-99.99,VWS V12.07,2013-06-03 03:50:00,
2013-06-02 22:55:00,39.0,31.1,29.62,NNE,22,0.0,0.0,73,0.00,,,-99.99,VWS V12.07,2013-06-03 03:55:00,
2013-06-02 23:00:00,39.0,31.1,29.62,NNE,22,0.0,0.0,73,0.00,,,-99.99,VWS V12.07,2013-06-03 04:00:00,
2013-06-02 23:05:00,38.8,31.2,29.62,NNE,22,0.0,0.0,74,0.00,,,-99.99,VWS V12.07,2013-06-03 04:05:00,
2013-06-02 23:10:00,38.4,30.9,29.62,NNE,22,0.0,0.0,74,0.00,,,-99.99,VWS V12.07,2013-06-03 04:10:00,
2013-06-02 23:15:00,38.4,30.9,29.62,NNE,22,0.0,0.0,74,0.00,,,-99.99,VWS V12.07,2013-06-03 04:15:00,
2013-06-02 23:20:00,38.3,31.1,29.62,NNE,22,0.0,0.0,75,0.00,,,-99.99,VWS V12.07,2013-06-03 04:20:00,
2013-06-02 23:25:00,38.1,30.9,29.62,NNE,22,0.0,0.0,75,0.00,,,-99.99,VWS V12.07,2013-06-03 04:25:00,
2013-06-02 23:30:00,37.9,30.7,29.62,NNE,22,0.0,0.0,75,0.00,,,-99.99,VWS V12.07,2013-06-03 04:30:00,
2013-06-02 23:35:00,37.7,30.5,29.62,NNE,22,0.0,0.0,75,0.00,,,-99.99,VWS V12.07,2013-06-03 04:35:00,
2013-06-02 23:40:00,37.5,30.3,29.62,NNE,22,0.0,0.0,75,0.00,,,-99.99,VWS V12.07,2013-06-03 04:40:00,
2013-06-02 23:45:00,37.4,30.5,29.62,NNE,22,0.0,0.0,76,0.00,,,-99.99,VWS V12.07,2013-06-03 04:45:00,
2013-06-02 23:50:00,37.2,30.4,29.62,NNE,22,0.0,0.0,76,0.00,,,-99.99,VWS V12.07,2013-06-03 04:50:00,
2013-06-02 23:55:00,37.0,30.1,29.62,NNE,22,0.0,0.0,76,0.00,,,-99.99,VWS V12.07,2013-06-03 04:55:00,